Location: Newark
(34.1333°N, 7.9667°W)
Time: 17:52:57
(UTC+00:00)

Transit 2A - Pass Details

Date: 22 June 2021
Orbit: 598 x 960 km, 66.7° (Epoch: 23 July)

Event Time Altitude Azimuth Distance (km) Brightness Sun altitude
Rises 03:00:20 0° 312° (NW) 3,186 9.3 -22.7°
Reaches altitude 10° 03:03:22 10° 293° (WNW) 2,330 8.4 -22.4°
Enters shadow 03:03:53 12° 288° (WNW) 2,216 8.2 -22.3°
Maximum altitude 03:06:48 18° 253° (WSW) 1,930 - -21.9°
Drops below altitude 10° 03:10:27 10° 213° (SSW) 2,478 - -21.5°
Sets 03:13:50 0° 195° (SSW) 3,477 - -21.0°
